| time (UTC) | temp F | wind direction | speed MPH | gust MPH | rain 1hr in | rain 24hr in | rain mn in | humidity % | barometer mb |
| 20260831001646 | 63 | 209 | 0.0 | 3.0 | 0.00 | 0.00 | 0.00 | 83 | 1007.9 |
| 20260831001439 | 63 | 209 | 1.0 | 3.0 | 0.00 | 0.00 | 0.00 | 83 | 1007.9 |
| 20260831000937 | 63 | 209 | 1.0 | 4.0 | 0.00 | 0.00 | 0.00 | 83 | 1008.0 |
| 20260831000646 | 63 | 209 | 1.0 | 4.0 | 0.00 | 0.00 | 0.00 | 84 | 1008.0 |
| 20260831000439 | 63 | 200 | 2.0 | 5.0 | 0.00 | 0.00 | 0.00 | 84 | 1007.9 |
| 20260830235646 | 62 | 184 | 2.0 | 5.0 | 0.00 | 0.00 | 0.00 | 84 | 1008.2 |
| 20260830235438 | 62 | 184 | 2.0 | 5.0 | 0.00 | 0.00 | 0.00 | 84 | 1008.1 |
| 20260830234938 | 62 | 184 | 2.0 | 5.0 | 0.00 | 0.00 | 0.00 | 85 | 1008.2 |
| 20260830234438 | 62 | 185 | 2.0 | 5.0 | 0.00 | 0.00 | 0.00 | 85 | 1008.2 |
| 20260830233646 | 62 | 184 | 0.0 | 3.0 | 0.00 | 0.00 | 0.00 | 85 | 1008.1 |
| 20260830233438 | 62 | 0 | 0.0 | 3.0 | 0.00 | 0.00 | 0.00 | 85 | 1008.2 |
| 20260830232938 | 62 | 0 | 0.0 | 0.0 | 0.00 | 0.00 | 0.00 | 85 | 1008.2 |
| 20260830232646 | 62 | 184 | 0.0 | 0.0 | 0.00 | 0.00 | 0.00 | 84 | 1008.2 |
| 20260830232437 | 62 | 0 | 0.0 | 0.0 | 0.00 | 0.00 | 0.00 | 84 | 1008.2 |
| 20260830231938 | 62 | 0 | 0.0 | 0.0 | 0.00 | 0.00 | 0.00 | 83 | 1008.1 |
| 20260830231646 | 62 | 184 | 0.0 | 0.0 | 0.00 | 0.00 | 0.00 | 83 | 1008.0 |
| 20260830231437 | 62 | 0 | 0.0 | 0.0 | 0.00 | 0.00 | 0.00 | 83 | 1008.0 |
| 20260830230646 | 63 | 184 | 0.0 | 0.0 | 0.00 | 0.00 | 0.00 | 82 | 1008.0 |
| 20260830225938 | 63 | 0 | 0.0 | 0.0 | 0.00 | 0.00 | 0.00 | 82 | 1008.1 |
| 20260830225646 | 63 | 184 | 0.0 | 0.0 | 0.00 | 0.00 | 0.00 | 82 | 1008.2 |
| 20260830225438 | 63 | 0 | 0.0 | 0.0 | 0.00 | 0.00 | 0.00 | 82 | 1008.2 |
| 20260830224646 | 64 | 184 | 0.0 | 0.0 | 0.00 | 0.00 | 0.00 | 81 | 1008.4 |
| 20260830224438 | 64 | 0 | 0.0 | 0.0 | 0.00 | 0.00 | 0.00 | 81 | 1008.4 |
| 20260830223938 | 64 | 0 | 0.0 | 0.0 | 0.00 | 0.00 | 0.00 | 81 | 1008.3 |
| 20260830223646 | 64 | 184 | 0.0 | 0.0 | 0.00 | 0.00 | 0.00 | 81 | 1008.4 |
| 20260830223438 | 64 | 0 | 0.0 | 0.0 | 0.00 | 0.00 | 0.00 | 81 | 1008.3 |
| 20260830222938 | 64 | 0 | 0.0 | 0.0 | 0.00 | 0.00 | 0.00 | 81 | 1008.4 |
| 20260830222646 | 64 | 184 | 0.0 | 0.0 | 0.00 | 0.00 | 0.00 | 80 | 1008.5 |
| 20260830222438 | 64 | 0 | 0.0 | 0.0 | 0.00 | 0.00 | 0.00 | 80 | 1008.4 |
| 20260830221438 | 64 | 0 | 0.0 | 1.0 | 0.00 | 0.00 | 0.00 | 80 | 1008.4 |
| 20260830220438 | 64 | 0 | 0.0 | 3.0 | 0.00 | 0.00 | 0.00 | 80 | 1008.5 |
| 20260830215940 | 65 | 0 | 0.0 | 3.0 | 0.00 | 0.00 | 0.00 | 80 | 1008.5 |
| 20260830215646 | 65 | 184 | 0.0 | 3.0 | 0.00 | 0.00 | 0.00 | 80 | 1008.6 |
| 20260830214937 | 65 | 0 | 0.0 | 3.0 | 0.00 | 0.00 | 0.00 | 79 | 1008.6 |
| 20260830214646 | 65 | 184 | 0.0 | 3.0 | 0.00 | 0.00 | 0.00 | 79 | 1008.7 |
| 20260830214438 | 65 | 0 | 0.0 | 3.0 | 0.00 | 0.00 | 0.00 | 79 | 1008.6 |
| 20260830213938 | 65 | 0 | 0.0 | 3.0 | 0.00 | 0.00 | 0.00 | 79 | 1008.6 |
| 20260830213438 | 65 | 184 | 1.0 | 3.0 | 0.00 | 0.00 | 0.00 | 78 | 1008.7 |
| 20260830212938 | 65 | 184 | 1.0 | 4.0 | 0.00 | 0.00 | 0.00 | 78 | 1008.7 |
| 20260830212646 | 65 | 184 | 1.0 | 4.0 | 0.00 | 0.00 | 0.00 | 78 | 1008.8 |
| 20260830212438 | 65 | 184 | 1.0 | 4.0 | 0.00 | 0.00 | 0.00 | 78 | 1008.8 |
| 20260830211938 | 65 | 184 | 1.0 | 5.0 | 0.00 | 0.00 | 0.00 | 78 | 1008.8 |
| 20260830211646 | 65 | 184 | 1.0 | 5.0 | 0.00 | 0.00 | 0.00 | 78 | 1009.0 |
| 20260830211438 | 65 | 184 | 1.0 | 5.0 | 0.00 | 0.00 | 0.00 | 78 | 1008.9 |
| 20260830210938 | 65 | 184 | 1.0 | 4.0 | 0.00 | 0.00 | 0.00 | 77 | 1008.9 |
| 20260830210646 | 66 | 184 | 1.0 | 4.0 | 0.00 | 0.00 | 0.00 | 77 | 1008.9 |
| 20260830210438 | 66 | 184 | 1.0 | 4.0 | 0.00 | 0.00 | 0.00 | 77 | 1008.9 |
| 20260830205938 | 66 | 184 | 1.0 | 5.0 | 0.00 | 0.00 | 0.00 | 77 | 1008.9 |
| 20260830204646 | 66 | 184 | 2.0 | 5.0 | 0.00 | 0.00 | 0.00 | 76 | 1009.2 |
| 20260830204438 | 66 | 182 | 3.0 | 6.0 | 0.00 | 0.00 | 0.00 | 76 | 1009.1 |
| 20260830203939 | 65 | 193 | 3.0 | 6.0 | 0.00 | 0.00 | 0.00 | 77 | 1009.1 |
| 20260830203646 | 65 | 176 | 3.0 | 6.0 | 0.00 | 0.00 | 0.00 | 77 | 1009.1 |
| 20260830202938 | 65 | 197 | 3.0 | 6.0 | 0.00 | 0.00 | 0.00 | 77 | 1009.2 |
| 20260830202646 | 64 | 203 | 2.0 | 6.0 | 0.00 | 0.00 | 0.00 | 78 | 1009.0 |
| 20260830202438 | 64 | 196 | 2.0 | 6.0 | 0.00 | 0.00 | 0.00 | 78 | 1009.1 |
| 20260830201938 | 64 | 0 | 0.0 | 3.0 | 0.00 | 0.00 | 0.00 | 78 | 1009.2 |
| 20260830201647 | 64 | 211 | 0.0 | 2.0 | 0.00 | 0.00 | 0.00 | 79 | 1009.2 |
| 20260830201438 | 64 | 0 | 0.0 | 2.0 | 0.00 | 0.00 | 0.00 | 79 | 1009.2 |
| 20260830200938 | 64 | 0 | 0.0 | 2.0 | 0.00 | 0.00 | 0.00 | 79 | 1009.2 |
| 20260830200646 | 64 | 211 | 0.0 | 1.0 | 0.00 | 0.00 | 0.00 | 79 | 1009.2 |
| 20260830195938 | 64 | 0 | 0.0 | 0.0 | 0.00 | 0.00 | 0.00 | 79 | 1009.2 |
| 20260830195646 | 64 | 211 | 0.0 | 0.0 | 0.00 | 0.00 | 0.00 | 78 | 1009.2 |
| 20260830195437 | 64 | 0 | 0.0 | 0.0 | 0.00 | 0.00 | 0.00 | 78 | 1009.2 |
| 20260830194939 | 65 | 0 | 0.0 | 0.0 | 0.00 | 0.00 | 0.00 | 78 | 1009.3 |
| 20260830194438 | 65 | 0 | 0.0 | 2.0 | 0.00 | 0.00 | 0.00 | 78 | 1009.3 |
| 20260830193938 | 65 | 0 | 0.0 | 2.0 | 0.00 | 0.00 | 0.00 | 78 | 1009.3 |
| 20260830193646 | 65 | 211 | 0.0 | 0.0 | 0.00 | 0.00 | 0.00 | 77 | 1009.2 |
| 20260830193438 | 65 | 0 | 0.0 | 2.0 | 0.00 | 0.00 | 0.00 | 77 | 1009.2 |
| 20260830192938 | 65 | 0 | 0.0 | 2.0 | 0.00 | 0.00 | 0.00 | 76 | 1009.4 |
| 20260830192646 | 65 | 211 | 0.0 | 2.0 | 0.00 | 0.00 | 0.00 | 76 | 1009.3 |
| 20260830192438 | 65 | 0 | 0.0 | 2.0 | 0.00 | 0.00 | 0.00 | 76 | 1009.3 |
| 20260830191938 | 66 | 0 | 0.0 | 1.0 | 0.00 | 0.00 | 0.00 | 75 | 1009.3 |
| 20260830191438 | 66 | 0 | 0.0 | 0.0 | 0.00 | 0.00 | 0.00 | 75 | 1009.4 |
| 20260830190938 | 66 | 0 | 0.0 | 0.0 | 0.00 | 0.00 | 0.00 | 74 | 1009.4 |
| 20260830190437 | 66 | 0 | 0.0 | 0.0 | 0.00 | 0.00 | 0.00 | 73 | 1009.3 |
| 20260830185938 | 67 | 0 | 0.0 | 0.0 | 0.00 | 0.00 | 0.00 | 73 | 1009.4 |
| 20260830185439 | 67 | 0 | 0.0 | 2.0 | 0.00 | 0.00 | 0.00 | 72 | 1009.4 |
| 20260830184646 | 67 | 211 | 0.0 | 2.0 | 0.00 | 0.01 | 0.00 | 71 | 1009.4 |
| 20260830184438 | 67 | 212 | 1.0 | 3.0 | 0.00 | 0.01 | 0.00 | 71 | 1009.4 |
| 20260830183938 | 67 | 212 | 1.0 | 3.0 | 0.00 | 0.01 | 0.00 | 71 | 1009.4 |
| 20260830183646 | 68 | 211 | 0.0 | 1.0 | 0.00 | 0.01 | 0.00 | 70 | 1009.5 |
| 20260830183439 | 68 | 0 | 0.0 | 2.0 | 0.00 | 0.01 | 0.00 | 70 | 1009.4 |
| 20260830182646 | 68 | 211 | 1.0 | 3.0 | 0.00 | 0.01 | 0.00 | 69 | 1009.4 |
| 20260830182438 | 68 | 212 | 1.0 | 3.0 | 0.00 | 0.01 | 0.00 | 69 | 1009.3 |
| 20260830181938 | 69 | 212 | 1.0 | 3.0 | 0.00 | 0.01 | 0.00 | 68 | 1009.4 |
| 20260830181646 | 69 | 211 | 1.0 | 3.0 | 0.00 | 0.01 | 0.00 | 67 | 1009.5 |
| 20260830181439 | 69 | 212 | 1.0 | 3.0 | 0.00 | 0.01 | 0.00 | 67 | 1009.4 |
| 20260830180438 | 70 | 211 | 1.0 | 2.0 | 0.00 | 0.01 | 0.00 | 67 | 1009.4 |
| 20260830175938 | 70 | 211 | 1.0 | 2.0 | 0.00 | 0.01 | 0.00 | 66 | 1009.4 |
| 20260830175646 | 70 | 211 | 1.0 | 2.0 | 0.00 | 0.01 | 0.00 | 66 | 1009.6 |
| 20260830175438 | 70 | 212 | 1.0 | 3.0 | 0.00 | 0.01 | 0.00 | 66 | 1009.5 |
| 20260830174938 | 70 | 212 | 1.0 | 3.0 | 0.00 | 0.01 | 0.00 | 65 | 1009.4 |
| 20260830174646 | 71 | 211 | 1.0 | 3.0 | 0.00 | 0.01 | 0.00 | 64 | 1009.6 |
| 20260830174438 | 71 | 214 | 2.0 | 3.0 | 0.00 | 0.02 | 0.00 | 64 | 1009.5 |
| 20260830173938 | 71 | 222 | 1.0 | 3.0 | 0.00 | 0.02 | 0.00 | 64 | 1009.5 |
| 20260830173438 | 71 | 226 | 1.0 | 6.0 | 0.00 | 0.02 | 0.00 | 62 | 1009.5 |
| 20260830172938 | 71 | 228 | 2.0 | 6.0 | 0.00 | 0.03 | 0.00 | 63 | 1009.6 |
| 20260830172646 | 71 | 194 | 2.0 | 5.0 | 0.00 | 0.01 | 0.00 | 62 | 1009.6 |
| 20260830171938 | 71 | 234 | 3.0 | 7.0 | 0.00 | 0.04 | 0.00 | 62 | 1009.7 |
| 20260830171646 | 72 | 222 | 3.0 | 7.0 | 0.00 | 0.01 | 0.00 | 61 | 1009.7 |
| 20260830171438 | 72 | 240 | 3.0 | 7.0 | 0.00 | 0.04 | 0.00 | 61 | 1009.6 |
| 20260830170938 | 72 | 232 | 2.0 | 7.0 | 0.00 | 0.06 | 0.00 | 62 | 1009.6 |
| 20260830170646 | 72 | 228 | 2.0 | 5.0 | 0.00 | 0.01 | 0.00 | 60 | 1009.7 |
| 20260830170438 | 72 | 202 | 2.0 | 5.0 | 0.00 | 0.08 | 0.00 | 60 | 1009.6 |
| 20260830165939 | 72 | 228 | 2.0 | 8.0 | 0.00 | 0.09 | 0.00 | 59 | 1009.5 |
| 20260830165646 | 72 | 197 | 3.0 | 8.0 | 0.00 | 0.11 | 0.00 | 60 | 1009.7 |
| 20260830165438 | 72 | 248 | 3.0 | 8.0 | 0.00 | 0.09 | 0.00 | 60 | 1009.6 |
| 20260830164938 | 72 | 249 | 3.0 | 6.0 | 0.00 | 0.11 | 0.00 | 59 | 1009.7 |
| 20260830164646 | 72 | 248 | 3.0 | 6.0 | 0.00 | 0.11 | 0.00 | 59 | 1009.8 |
| 20260830163938 | 73 | 227 | 3.0 | 11.0 | 0.00 | 0.13 | 0.00 | 59 | 1009.6 |
| 20260830163646 | 73 | 190 | 3.0 | 7.0 | 0.00 | 0.11 | 0.00 | 57 | 1009.8 |
| 20260830163438 | 73 | 235 | 3.0 | 8.0 | 0.00 | 0.13 | 0.00 | 57 | 1009.7 |
| 20260830162938 | 73 | 240 | 4.0 | 9.0 | 0.00 | 0.15 | 0.00 | 58 | 1009.8 |
| 20260830162646 | 73 | 255 | 4.0 | 8.0 | 0.00 | 0.11 | 0.00 | 58 | 1009.8 |
| 20260830162438 | 73 | 232 | 4.0 | 13.0 | 0.00 | 0.17 | 0.00 | 58 | 1009.7 |
| 20260830161938 | 73 | 235 | 4.0 | 13.0 | 0.00 | 0.17 | 0.00 | 57 | 1009.8 |
| 20260830161647 | 73 | 260 | 5.0 | 10.0 | 0.00 | 0.11 | 0.00 | 57 | 1009.8 |
| 20260830161438 | 73 | 240 | 5.0 | 12.0 | 0.00 | 0.17 | 0.00 | 57 | 1009.8 |
| 20260830160938 | 73 | 242 | 4.0 | 12.0 | 0.00 | 0.17 | 0.00 | 59 | 1009.8 |
| 20260830160646 | 73 | 189 | 4.0 | 8.0 | 0.00 | 0.11 | 0.00 | 57 | 1010.0 |
| 20260830160438 | 73 | 245 | 4.0 | 9.0 | 0.00 | 0.17 | 0.00 | 57 | 1009.9 |
| 20260830155938 | 73 | 242 | 4.0 | 11.0 | 0.00 | 0.17 | 0.00 | 59 | 1009.8 |
| 20260830155438 | 73 | 241 | 5.0 | 11.0 | 0.00 | 0.17 | 0.00 | 59 | 1009.7 |
| 20260830154938 | 73 | 245 | 4.0 | 10.0 | 0.00 | 0.17 | 0.00 | 58 | 1009.8 |
| 20260830154646 | 73 | 253 | 4.0 | 7.0 | 0.00 | 0.17 | 0.00 | 60 | 1009.9 |
| 20260830154438 | 73 | 244 | 4.0 | 10.0 | 0.00 | 0.17 | 0.00 | 60 | 1009.9 |
| 20260830153938 | 73 | 243 | 5.0 | 12.0 | 0.00 | 0.17 | 0.00 | 60 | 1010.0 |
| 20260830153646 | 73 | 249 | 6.0 | 12.0 | 0.00 | 0.17 | 0.00 | 59 | 1010.0 |
| 20260830153438 | 73 | 241 | 5.0 | 12.0 | 0.00 | 0.17 | 0.00 | 59 | 1009.9 |
| 20260830152938 | 73 | 242 | 4.0 | 11.0 | 0.00 | 0.17 | 0.00 | 61 | 1010.0 |
| 20260830152646 | 73 | 218 | 4.0 | 8.0 | 0.00 | 0.17 | 0.00 | 61 | 1010.0 |
| 20260830151938 | 73 | 238 | 5.0 | 12.0 | 0.00 | 0.17 | 0.00 | 61 | 1010.0 |
| 20260830151646 | 73 | 255 | 4.0 | 12.0 | 0.00 | 0.17 | 0.00 | 61 | 1010.1 |
| 20260830151438 | 73 | 227 | 5.0 | 12.0 | 0.00 | 0.17 | 0.00 | 61 | 1010.0 |
| 20260830150938 | 73 | 233 | 5.0 | 12.0 | 0.00 | 0.17 | 0.00 | 61 | 1010.0 |
| 20260830150646 | 73 | 237 | 4.0 | 11.0 | 0.00 | 0.17 | 0.00 | 62 | 1010.1 |
| 20260830150438 | 73 | 242 | 4.0 | 11.0 | 0.00 | 0.17 | 0.00 | 62 | 1010.1 |
| 20260830145938 | 73 | 245 | 4.0 | 7.0 | 0.00 | 0.17 | 0.00 | 63 | 1010.1 |
| 20260830145437 | 73 | 235 | 4.0 | 14.0 | 0.00 | 0.17 | 0.00 | 63 | 1010.1 |
| 20260830144437 | 73 | 241 | 4.0 | 11.0 | 0.00 | 0.17 | 0.00 | 63 | 1010.1 |
| 20260830143938 | 73 | 237 | 4.0 | 11.0 | 0.00 | 0.17 | 0.00 | 63 | 1010.1 |
| 20260830143438 | 73 | 243 | 4.0 | 14.0 | 0.00 | 0.17 | 0.00 | 64 | 1010.1 |
| 20260830142437 | 73 | 243 | 5.0 | 13.0 | 0.00 | 0.17 | 0.00 | 64 | 1010.1 |
| 20260830141938 | 73 | 245 | 5.0 | 11.0 | 0.00 | 0.17 | 0.00 | 64 | 1010.1 |
| 20260830141643 | 73 | 261 | 5.0 | 10.0 | 0.00 | 0.17 | 0.00 | 63 | 1010.1 |
| 20260830141438 | 73 | 239 | 5.0 | 12.0 | 0.00 | 0.17 | 0.00 | 65 | 1010.2 |
| 20260830140938 | 73 | 232 | 5.0 | 13.0 | 0.00 | 0.18 | 0.00 | 63 | 1010.0 |
| 20260830140644 | 73 | 203 | 5.0 | 12.0 | 0.00 | 0.17 | 0.00 | 63 | 1010.2 |
| 20260830140438 | 73 | 230 | 6.0 | 13.0 | 0.00 | 0.18 | 0.00 | 63 | 1010.1 |
| 20260830135643 | 73 | 232 | 6.0 | 13.0 | 0.00 | 0.18 | 0.00 | 64 | 1010.2 |
| 20260830134938 | 73 | 226 | 5.0 | 10.0 | 0.00 | 0.18 | 0.00 | 65 | 1010.1 |
| 20260830134643 | 73 | 184 | 4.0 | 9.0 | 0.00 | 0.18 | 0.00 | 65 | 1010.2 |
| 20260830133938 | 73 | 246 | 5.0 | 10.0 | 0.00 | 0.19 | 0.00 | 66 | 1010.1 |
| 20260830133643 | 72 | 227 | 5.0 | 8.0 | 0.00 | 0.18 | 0.00 | 67 | 1010.2 |
| 20260830133438 | 72 | 240 | 5.0 | 13.0 | 0.00 | 0.19 | 0.00 | 67 | 1010.1 |
| 20260830132938 | 72 | 241 | 6.0 | 13.0 | 0.00 | 0.19 | 0.00 | 67 | 1010.2 |
| 20260830132643 | 72 | 250 | 5.0 | 11.0 | 0.00 | 0.18 | 0.00 | 68 | 1010.3 |
| 20260830132438 | 72 | 245 | 4.0 | 11.0 | 0.00 | 0.19 | 0.00 | 68 | 1010.2 |
| 20260830131644 | 71 | 260 | 4.0 | 9.0 | 0.00 | 0.18 | 0.00 | 69 | 1010.3 |
| 20260830131437 | 71 | 246 | 5.0 | 12.0 | 0.00 | 0.19 | 0.00 | 69 | 1010.2 |
| 20260830130938 | 71 | 247 | 6.0 | 12.0 | 0.00 | 0.19 | 0.00 | 69 | 1010.2 |
| 20260830130644 | 71 | 211 | 6.0 | 11.0 | 0.00 | 0.18 | 0.00 | 69 | 1010.2 |
| 20260830130438 | 71 | 248 | 7.0 | 12.0 | 0.00 | 0.19 | 0.00 | 69 | 1010.2 |
| 20260830125938 | 70 | 250 | 6.0 | 12.0 | 0.00 | 0.19 | 0.00 | 70 | 1010.3 |
| 20260830125643 | 70 | 254 | 5.0 | 11.0 | 0.00 | 0.19 | 0.00 | 70 | 1010.4 |
| 20260830125438 | 70 | 252 | 6.0 | 15.0 | 0.00 | 0.19 | 0.00 | 70 | 1010.3 |
| 20260830124938 | 70 | 250 | 6.0 | 15.0 | 0.00 | 0.19 | 0.00 | 70 | 1010.4 |
| 20260830124643 | 70 | 253 | 6.0 | 14.0 | 0.00 | 0.19 | 0.00 | 70 | 1010.5 |
| 20260830124438 | 70 | 247 | 6.0 | 14.0 | 0.00 | 0.19 | 0.00 | 70 | 1010.4 |
| 20260830123938 | 70 | 249 | 6.0 | 13.0 | 0.00 | 0.19 | 0.00 | 69 | 1010.4 |
| 20260830123439 | 70 | 250 | 5.0 | 11.0 | 0.00 | 0.19 | 0.00 | 71 | 1010.4 |
| 20260830122938 | 70 | 241 | 4.0 | 11.0 | 0.00 | 0.19 | 0.00 | 71 | 1010.3 |
| 20260830122643 | 70 | 212 | 4.0 | 9.0 | 0.00 | 0.19 | 0.00 | 71 | 1010.4 |
| 20260830122438 | 70 | 244 | 5.0 | 17.0 | 0.00 | 0.19 | 0.00 | 71 | 1010.3 |
| 20260830121938 | 70 | 241 | 6.0 | 17.0 | 0.00 | 0.19 | 0.00 | 71 | 1010.4 |
| 20260830121643 | 70 | 206 | 5.0 | 10.0 | 0.00 | 0.19 | 0.00 | 71 | 1010.3 |
| 20260830121438 | 70 | 234 | 5.0 | 12.0 | 0.00 | 0.19 | 0.00 | 71 | 1010.2 |
| 20260830120938 | 70 | 240 | 5.0 | 11.0 | 0.00 | 0.19 | 0.00 | 70 | 1010.2 |
| 20260830120645 | 71 | 255 | 5.0 | 11.0 | 0.00 | 0.19 | 0.00 | 70 | 1010.3 |
| 20260830120438 | 71 | 245 | 6.0 | 16.0 | 0.00 | 0.19 | 0.00 | 70 | 1010.3 |
| 20260830115938 | 71 | 246 | 6.0 | 16.0 | 0.00 | 0.19 | 0.00 | 70 | 1010.1 |
| 20260830115644 | 71 | 241 | 6.0 | 16.0 | 0.00 | 0.19 | 0.00 | 70 | 1010.2 |
| 20260830115438 | 71 | 244 | 6.0 | 16.0 | 0.00 | 0.19 | 0.00 | 70 | 1010.2 |
| 20260830114938 | 70 | 241 | 5.0 | 12.0 | 0.00 | 0.19 | 0.00 | 72 | 1010.2 |
| 20260830114438 | 70 | 241 | 5.0 | 12.0 | 0.00 | 0.19 | 0.00 | 72 | 1010.1 |
| 20260830113643 | 69 | 255 | 5.0 | 11.0 | 0.00 | 0.19 | 0.00 | 74 | 1010.2 |
| 20260830112938 | 69 | 247 | 5.0 | 12.0 | 0.00 | 0.19 | 0.00 | 74 | 1010.1 |
| 20260830112644 | 68 | 213 | 5.0 | 12.0 | 0.00 | 0.19 | 0.00 | 75 | 1010.2 |
| 20260830112438 | 68 | 247 | 5.0 | 12.0 | 0.00 | 0.19 | 0.00 | 75 | 1010.1 |
| 20260830111938 | 68 | 250 | 6.0 | 11.0 | 0.00 | 0.19 | 0.00 | 79 | 1010.1 |
| 20260830111644 | 67 | 253 | 7.0 | 11.0 | 0.00 | 0.19 | 0.00 | 80 | 1010.2 |
| 20260830111437 | 67 | 254 | 6.0 | 11.0 | 0.00 | 0.19 | 0.00 | 80 | 1010.1 |
| 20260830110938 | 67 | 256 | 6.0 | 10.0 | 0.00 | 0.19 | 0.00 | 81 | 1010.1 |
| 20260830110644 | 67 | 256 | 6.0 | 10.0 | 0.00 | 0.19 | 0.00 | 80 | 1010.2 |
| 20260830110437 | 67 | 257 | 6.0 | 10.0 | 0.00 | 0.19 | 0.00 | 80 | 1010.1 |
| 20260830105938 | 67 | 255 | 7.0 | 15.0 | 0.00 | 0.19 | 0.00 | 79 | 1010.2 |
| 20260830105437 | 68 | 252 | 9.0 | 18.0 | 0.00 | 0.19 | 0.00 | 77 | 1010.1 |
| 20260830104938 | 68 | 251 | 9.0 | 18.0 | 0.00 | 0.19 | 0.00 | 76 | 1010.1 |
| 20260830104438 | 69 | 238 | 6.0 | 12.0 | 0.00 | 0.19 | 0.00 | 73 | 1010.0 |
| 20260830103938 | 69 | 243 | 6.0 | 17.0 | 0.00 | 0.19 | 0.00 | 72 | 1010.0 |
| 20260830103644 | 69 | 270 | 6.0 | 15.0 | 0.00 | 0.19 | 0.00 | 73 | 1010.0 |
| 20260830102938 | 69 | 233 | 6.0 | 19.0 | 0.00 | 0.19 | 0.00 | 74 | 1009.9 |
| 20260830102644 | 68 | 182 | 5.0 | 10.0 | 0.00 | 0.19 | 0.00 | 74 | 1009.9 |
| 20260830102438 | 68 | 238 | 5.0 | 14.0 | 0.00 | 0.19 | 0.00 | 74 | 1009.8 |
| 20260830101938 | 68 | 245 | 6.0 | 14.0 | 0.00 | 0.19 | 0.00 | 74 | 1009.7 |
| 20260830101643 | 68 | 246 | 8.0 | 16.0 | 0.00 | 0.19 | 0.00 | 75 | 1009.8 |
| 20260830101437 | 68 | 247 | 8.0 | 16.0 | 0.00 | 0.19 | 0.00 | 74 | 1009.8 |
| 20260830100938 | 68 | 245 | 7.0 | 16.0 | 0.00 | 0.19 | 0.00 | 75 | 1009.8 |
| 20260830100644 | 68 | 264 | 6.0 | 12.0 | 0.00 | 0.19 | 0.00 | 75 | 1009.9 |
| 20260830100438 | 68 | 242 | 6.0 | 14.0 | 0.00 | 0.19 | 0.00 | 75 | 1009.8 |
| 20260830095937 | 68 | 235 | 6.0 | 14.0 | 0.00 | 0.19 | 0.00 | 75 | 1009.7 |
| 20260830095644 | 68 | 248 | 5.0 | 14.0 | 0.00 | 0.19 | 0.00 | 75 | 1009.8 |
| 20260830095438 | 68 | 241 | 6.0 | 14.0 | 0.00 | 0.19 | 0.00 | 75 | 1009.8 |
| 20260830094937 | 67 | 248 | 6.0 | 14.0 | 0.00 | 0.19 | 0.00 | 76 | 1009.7 |
| 20260830094643 | 67 | 236 | 6.0 | 14.0 | 0.00 | 0.19 | 0.00 | 76 | 1009.7 |
| 20260830094438 | 67 | 247 | 7.0 | 15.0 | 0.00 | 0.19 | 0.00 | 76 | 1009.7 |
| 20260830093937 | 67 | 243 | 8.0 | 15.0 | 0.00 | 0.19 | 0.00 | 75 | 1009.7 |
| 20260830093643 | 67 | 232 | 8.0 | 15.0 | 0.00 | 0.19 | 0.00 | 75 | 1009.7 |
| 20260830093438 | 67 | 243 | 8.0 | 18.0 | 0.00 | 0.19 | 0.00 | 75 | 1009.7 |
| 20260830092938 | 67 | 245 | 7.0 | 18.0 | 0.00 | 0.19 | 0.00 | 75 | 1009.7 |
| 20260830092644 | 67 | 222 | 7.0 | 14.0 | 0.00 | 0.19 | 0.00 | 76 | 1009.6 |
| 20260830092438 | 67 | 244 | 6.0 | 15.0 | 0.00 | 0.19 | 0.00 | 76 | 1009.5 |
| 20260830091643 | 67 | 210 | 6.0 | 14.0 | 0.00 | 0.19 | 0.00 | 76 | 1009.5 |
| 20260830091438 | 67 | 240 | 7.0 | 17.0 | 0.00 | 0.19 | 0.00 | 76 | 1009.4 |
| 20260830090644 | 66 | 265 | 7.0 | 15.0 | 0.00 | 0.19 | 0.00 | 77 | 1009.4 |
| 20260830090437 | 66 | 246 | 8.0 | 17.0 | 0.00 | 0.19 | 0.00 | 77 | 1009.4 |
| 20260830085938 | 66 | 247 | 9.0 | 22.0 | 0.00 | 0.19 | 0.00 | 77 | 1009.3 |
| 20260830085643 | 66 | 241 | 9.0 | 22.0 | 0.00 | 0.19 | 0.00 | 77 | 1009.2 |
| 20260830084938 | 66 | 246 | 8.0 | 17.0 | 0.00 | 0.19 | 0.00 | 78 | 1009.2 |
| 20260830084437 | 66 | 247 | 8.0 | 16.0 | 0.00 | 0.19 | 0.00 | 78 | 1009.1 |
| 20260830083937 | 65 | 247 | 8.0 | 16.0 | 0.00 | 0.19 | 0.00 | 78 | 1009.1 |
| 20260830083644 | 65 | 245 | 7.0 | 15.0 | 0.00 | 0.19 | 0.00 | 79 | 1009.1 |
| 20260830083438 | 65 | 243 | 7.0 | 15.0 | 0.00 | 0.19 | 0.00 | 79 | 1009.2 |
| 20260830082937 | 65 | 242 | 6.0 | 15.0 | 0.00 | 0.19 | 0.00 | 79 | 1009.0 |
| 20260830082644 | 65 | 256 | 6.0 | 14.0 | 0.00 | 0.19 | 0.00 | 80 | 1009.0 |
| 20260830082438 | 65 | 238 | 5.0 | 14.0 | 0.00 | 0.19 | 0.00 | 80 | 1009.0 |
| 20260830081938 | 65 | 236 | 5.0 | 14.0 | 0.00 | 0.19 | 0.00 | 80 | 1008.9 |
| 20260830081643 | 65 | 205 | 5.0 | 13.0 | 0.00 | 0.19 | 0.00 | 80 | 1008.9 |
| 20260830081438 | 65 | 236 | 6.0 | 15.0 | 0.00 | 0.19 | 0.00 | 80 | 1008.9 |
| 20260830080937 | 64 | 237 | 6.0 | 15.0 | 0.00 | 0.19 | 0.00 | 80 | 1008.9 |
| 20260830080438 | 64 | 244 | 6.0 | 17.0 | 0.00 | 0.19 | 0.00 | 80 | 1008.9 |
| 20260830075938 | 64 | 246 | 6.0 | 17.0 | 0.00 | 0.19 | 0.00 | 80 | 1008.8 |
| 20260830075644 | 64 | 260 | 4.0 | 13.0 | 0.00 | 0.19 | 0.00 | 80 | 1008.7 |
| 20260830075439 | 64 | 244 | 5.0 | 14.0 | 0.00 | 0.19 | 0.00 | 80 | 1008.8 |
| 20260830074940 | 64 | 246 | 7.0 | 19.0 | 0.00 | 0.19 | 0.00 | 80 | 1008.8 |
| 20260830074644 | 64 | 215 | 7.0 | 19.0 | 0.00 | 0.19 | 0.00 | 80 | 1008.6 |
| 20260830074437 | 65 | 240 | 6.0 | 19.0 | 0.00 | 0.19 | 0.00 | 80 | 1008.7 |
| 20260830073938 | 65 | 236 | 6.0 | 13.0 | 0.00 | 0.19 | 0.00 | 79 | 1008.6 |
| 20260830073644 | 65 | 259 | 6.0 | 11.0 | 0.00 | 0.19 | 0.00 | 79 | 1008.6 |
| 20260830073438 | 65 | 244 | 6.0 | 16.0 | 0.00 | 0.19 | 0.00 | 79 | 1008.6 |
| 20260830072938 | 65 | 248 | 6.0 | 17.0 | 0.00 | 0.19 | 0.00 | 80 | 1008.5 |
| 20260830072644 | 65 | 236 | 6.0 | 16.0 | 0.00 | 0.19 | 0.00 | 79 | 1008.5 |
| 20260830072438 | 65 | 247 | 7.0 | 19.0 | 0.00 | 0.19 | 0.00 | 79 | 1008.6 |
| 20260830071938 | 65 | 246 | 7.0 | 19.0 | 0.00 | 0.19 | 0.00 | 79 | 1008.4 |
| 20260830071644 | 65 | 244 | 7.0 | 15.0 | 0.00 | 0.19 | 0.00 | 79 | 1008.4 |
| 20260830071437 | 65 | 245 | 7.0 | 15.0 | 0.00 | 0.19 | 0.00 | 79 | 1008.4 |
| 20260830070938 | 65 | 243 | 6.0 | 13.0 | 0.00 | 0.19 | 0.00 | 79 | 1008.4 |
| 20260830065644 | 64 | 234 | 6.0 | 16.0 | 0.00 | 0.19 | 0.00 | 79 | 1008.1 |
| 20260830065438 | 64 | 240 | 6.0 | 16.0 | 0.00 | 0.19 | 0.00 | 79 | 1008.3 |
| 20260830064938 | 64 | 241 | 5.0 | 16.0 | 0.00 | 0.19 | 0.00 | 79 | 1008.1 |
| 20260830064644 | 64 | 208 | 5.0 | 12.0 | 0.00 | 0.19 | 0.00 | 79 | 1008.0 |
| 20260830064438 | 64 | 243 | 5.0 | 12.0 | 0.00 | 0.19 | 0.00 | 79 | 1008.1 |
| 20260830063938 | 64 | 247 | 6.0 | 13.0 | 0.00 | 0.19 | 0.00 | 79 | 1007.9 |
| 20260830063644 | 64 | 252 | 6.0 | 13.0 | 0.00 | 0.19 | 0.00 | 80 | 1007.9 |
| 20260830063438 | 64 | 246 | 6.0 | 13.0 | 0.00 | 0.19 | 0.00 | 80 | 1007.9 |
| 20260830062938 | 64 | 241 | 6.0 | 15.0 | 0.00 | 0.19 | 0.00 | 80 | 1007.9 |
| 20260830062644 | 64 | 215 | 6.0 | 15.0 | 0.00 | 0.19 | 0.00 | 80 | 1007.7 |
| 20260830062437 | 64 | 235 | 6.0 | 16.0 | 0.00 | 0.19 | 0.00 | 80 | 1007.8 |
| 20260830061938 | 64 | 242 | 6.0 | 16.0 | 0.00 | 0.19 | 0.00 | 79 | 1007.9 |
| 20260830061644 | 64 | 245 | 6.0 | 14.0 | 0.00 | 0.19 | 0.00 | 79 | 1007.8 |
| 20260830061437 | 64 | 243 | 5.0 | 14.0 | 0.00 | 0.19 | 0.00 | 79 | 1007.8 |
| 20260830060938 | 64 | 236 | 6.0 | 13.0 | 0.00 | 0.19 | 0.00 | 79 | 1007.7 |
| 20260830060644 | 64 | 269 | 6.0 | 13.0 | 0.00 | 0.19 | 0.00 | 79 | 1007.7 |
| 20260830060438 | 64 | 242 | 6.0 | 14.0 | 0.00 | 0.19 | 0.00 | 79 | 1007.8 |
| 20260830055938 | 64 | 240 | 5.0 | 14.0 | 0.00 | 0.19 | 0.00 | 79 | 1007.7 |
| 20260830055644 | 64 | 240 | 4.0 | 10.0 | 0.00 | 0.19 | 0.00 | 79 | 1007.6 |
| 20260830055438 | 64 | 237 | 5.0 | 13.0 | 0.00 | 0.19 | 0.00 | 80 | 1007.6 |
| 20260830054938 | 64 | 244 | 5.0 | 13.0 | 0.00 | 0.19 | 0.00 | 80 | 1007.5 |
| 20260830054644 | 64 | 176 | 4.0 | 11.0 | 0.00 | 0.19 | 0.00 | 80 | 1007.4 |
| 20260830054438 | 64 | 236 | 4.0 | 11.0 | 0.00 | 0.19 | 0.00 | 80 | 1007.4 |
| 20260830053939 | 64 | 234 | 5.0 | 14.0 | 0.00 | 0.19 | 0.00 | 80 | 1007.3 |
| 20260830053645 | 63 | 229 | 5.0 | 14.0 | 0.00 | 0.19 | 0.00 | 80 | 1007.3 |
| 20260830053438 | 63 | 244 | 6.0 | 14.0 | 0.00 | 0.19 | 0.00 | 80 | 1007.3 |
| 20260830052937 | 63 | 241 | 7.0 | 15.0 | 0.00 | 0.19 | 0.00 | 80 | 1007.2 |
| 20260830052644 | 63 | 178 | 7.0 | 15.0 | 0.00 | 0.19 | 0.00 | 80 | 1007.1 |
| 20260830051938 | 63 | 237 | 5.0 | 13.0 | 0.00 | 0.19 | 0.00 | 80 | 1007.0 |
| 20260830051644 | 63 | 281 | 5.0 | 11.0 | 0.00 | 0.19 | 0.00 | 80 | 1007.0 |
| 20260830051438 | 63 | 241 | 5.0 | 11.0 | 0.00 | 0.19 | 0.00 | 80 | 1007.1 |
| 20260830050938 | 63 | 236 | 4.0 | 9.0 | 0.00 | 0.19 | 0.00 | 80 | 1007.0 |
| 20260830050644 | 63 | 213 | 4.0 | 8.0 | 0.00 | 0.19 | 0.00 | 80 | 1007.0 |
| 20260830050439 | 63 | 238 | 5.0 | 14.0 | 0.00 | 0.19 | 0.00 | 80 | 1007.0 |
| 20260830045938 | 63 | 236 | 5.0 | 14.0 | 0.00 | 0.19 | 0.00 | 80 | 1007.0 |
| 20260830045644 | 63 | 243 | 5.0 | 14.0 | 0.00 | 0.19 | 0.00 | 80 | 1006.9 |
| 20260830045438 | 63 | 230 | 5.0 | 14.0 | 0.00 | 0.19 | 0.00 | 80 | 1006.9 |
| 20260830044937 | 63 | 236 | 5.0 | 13.0 | 0.00 | 0.19 | 0.00 | 80 | 1006.9 |
| 20260830044644 | 63 | 232 | 5.0 | 10.0 | 0.00 | 0.19 | 0.00 | 80 | 1006.8 |
| 20260830044438 | 63 | 231 | 4.0 | 12.0 | 0.00 | 0.19 | 0.00 | 80 | 1006.8 |
| 20260830043938 | 63 | 225 | 5.0 | 12.0 | 0.00 | 0.19 | 0.00 | 80 | 1006.8 |
| 20260830043644 | 63 | 199 | 6.0 | 11.0 | 0.00 | 0.19 | 0.00 | 80 | 1006.8 |
| 20260830043438 | 63 | 238 | 5.0 | 11.0 | 0.00 | 0.19 | 0.00 | 80 | 1006.7 |
| 20260830042937 | 63 | 247 | 4.0 | 14.0 | 0.00 | 0.19 | 0.00 | 80 | 1006.8 |
| 20260830042644 | 63 | 257 | 4.0 | 14.0 | 0.00 | 0.19 | 0.00 | 80 | 1006.8 |
| 20260830042438 | 63 | 247 | 5.0 | 14.0 | 0.00 | 0.19 | 0.00 | 80 | 1006.8 |
| 20260830041938 | 63 | 241 | 6.0 | 18.0 | 0.00 | 0.19 | 0.00 | 80 | 1006.8 |
| 20260830041644 | 64 | 255 | 6.0 | 18.0 | 0.00 | 0.19 | 0.00 | 80 | 1006.9 |
| 20260830040439 | 64 | 239 | 5.0 | 17.0 | 0.00 | 0.19 | 0.00 | 80 | 1006.7 |
| 20260830035938 | 64 | 239 | 6.0 | 17.0 | 0.00 | 0.19 | 0.00 | 79 | 1006.7 |
| 20260830035644 | 64 | 249 | 5.0 | 11.0 | 0.00 | 0.19 | 0.00 | 79 | 1006.8 |
| 20260830035438 | 64 | 240 | 5.0 | 13.0 | 0.00 | 0.19 | 0.00 | 79 | 1006.7 |
| 20260830034938 | 64 | 235 | 5.0 | 13.0 | 0.00 | 0.19 | 0.00 | 79 | 1006.7 |
| 20260830034644 | 64 | 260 | 6.0 | 13.0 | 0.00 | 0.19 | 0.00 | 79 | 1006.7 |
| 20260830034438 | 64 | 231 | 5.0 | 13.0 | 0.00 | 0.19 | 0.00 | 79 | 1006.7 |
| 20260830033938 | 64 | 235 | 6.0 | 13.0 | 0.00 | 0.19 | 0.00 | 79 | 1006.6 |
| 20260830033644 | 64 | 242 | 6.0 | 12.0 | 0.00 | 0.19 | 0.00 | 79 | 1006.8 |
| 20260830033438 | 64 | 243 | 6.0 | 14.0 | 0.00 | 0.19 | 0.00 | 79 | 1006.7 |
| 20260830032938 | 64 | 246 | 7.0 | 16.0 | 0.00 | 0.19 | 0.00 | 79 | 1006.7 |
| 20260830031938 | 64 | 237 | 6.0 | 16.0 | 0.00 | 0.19 | 0.00 | 79 | 1006.5 |
| 20260830031644 | 64 | 215 | 7.0 | 15.0 | 0.00 | 0.19 | 0.00 | 79 | 1006.6 |
| 20260830031438 | 64 | 232 | 6.0 | 16.0 | 0.00 | 0.19 | 0.00 | 79 | 1006.5 |
| 20260830030938 | 64 | 234 | 6.0 | 16.0 | 0.00 | 0.19 | 0.00 | 80 | 1006.6 |
| 20260830030644 | 64 | 210 | 7.0 | 16.0 | 0.00 | 0.19 | 0.00 | 80 | 1006.5 |
| 20260830030439 | 64 | 241 | 6.0 | 16.0 | 0.00 | 0.19 | 0.00 | 80 | 1006.5 |
| 20260830025938 | 64 | 247 | 7.0 | 22.0 | 0.00 | 0.19 | 0.00 | 80 | 1006.4 |
| 20260830025644 | 64 | 292 | 7.0 | 19.0 | 0.00 | 0.19 | 0.00 | 80 | 1006.3 |
| 20260830025438 | 64 | 246 | 6.0 | 22.0 | 0.00 | 0.19 | 0.00 | 80 | 1006.4 |
| 20260830024938 | 64 | 236 | 5.0 | 14.0 | 0.00 | 0.19 | 0.00 | 81 | 1006.4 |
| 20260830024644 | 63 | 214 | 5.0 | 13.0 | 0.00 | 0.19 | 0.00 | 81 | 1006.3 |
| 20260830024439 | 63 | 235 | 6.0 | 13.0 | 0.00 | 0.19 | 0.00 | 81 | 1006.4 |
| 20260830023938 | 63 | 242 | 6.0 | 14.0 | 0.00 | 0.19 | 0.00 | 81 | 1006.4 |
| 20260830023644 | 63 | 258 | 6.0 | 14.0 | 0.00 | 0.19 | 0.00 | 81 | 1006.3 |
| 20260830023439 | 63 | 244 | 6.0 | 19.0 | 0.00 | 0.19 | 0.00 | 81 | 1006.3 |
| 20260830022938 | 63 | 248 | 5.0 | 19.0 | 0.00 | 0.19 | 0.00 | 81 | 1006.3 |
| 20260830022644 | 63 | 240 | 5.0 | 12.0 | 0.00 | 0.19 | 0.00 | 81 | 1006.3 |
| 20260830022438 | 63 | 243 | 6.0 | 18.0 | 0.00 | 0.19 | 0.00 | 81 | 1006.3 |
| 20260830021938 | 64 | 240 | 6.0 | 18.0 | 0.00 | 0.19 | 0.00 | 81 | 1006.3 |
| 20260830021644 | 63 | 224 | 5.0 | 13.0 | 0.00 | 0.19 | 0.00 | 81 | 1006.2 |
| 20260830021438 | 63 | 242 | 6.0 | 13.0 | 0.00 | 0.19 | 0.00 | 81 | 1006.3 |
| 20260830020939 | 64 | 238 | 6.0 | 13.0 | 0.00 | 0.19 | 0.00 | 81 | 1006.2 |
| 20260830020438 | 64 | 237 | 6.0 | 13.0 | 0.00 | 0.19 | 0.00 | 81 | 1006.2 |
| 20260830015938 | 64 | 238 | 5.0 | 14.0 | 0.00 | 0.19 | 0.00 | 81 | 1006.2 |
| 20260830015644 | 64 | 213 | 5.0 | 13.0 | 0.00 | 0.19 | 0.00 | 81 | 1006.2 |
| 20260830014644 | 64 | 255 | 7.0 | 15.0 | 0.00 | 0.19 | 0.00 | 81 | 1006.2 |
| 20260830014438 | 64 | 239 | 7.0 | 15.0 | 0.00 | 0.19 | 0.00 | 81 | 1006.1 |
| 20260830013938 | 64 | 239 | 7.0 | 13.0 | 0.00 | 0.19 | 0.00 | 81 | 1006.0 |
| 20260830013645 | 64 | 228 | 6.0 | 13.0 | 0.00 | 0.19 | 0.00 | 82 | 1006.0 |
| 20260830013438 | 64 | 239 | 6.0 | 13.0 | 0.00 | 0.19 | 0.00 | 82 | 1006.0 |
| 20260830012938 | 64 | 241 | 6.0 | 14.0 | 0.00 | 0.19 | 0.00 | 83 | 1006.0 |
| 20260830012644 | 64 | 224 | 6.0 | 14.0 | 0.00 | 0.19 | 0.00 | 84 | 1006.1 |
| 20260830012438 | 64 | 241 | 6.0 | 14.0 | 0.00 | 0.19 | 0.00 | 84 | 1006.0 |
| 20260830011938 | 64 | 234 | 5.0 | 14.0 | 0.00 | 0.19 | 0.00 | 84 | 1006.0 |
| 20260830011644 | 65 | 235 | 4.0 | 10.0 | 0.00 | 0.19 | 0.00 | 84 | 1006.1 |
| 20260830011438 | 65 | 225 | 4.0 | 13.0 | 0.00 | 0.19 | 0.00 | 84 | 1006.0 |
| 20260830010938 | 65 | 234 | 5.0 | 14.0 | 0.00 | 0.19 | 0.00 | 83 | 1006.0 |
| 20260830010438 | 65 | 241 | 5.0 | 14.0 | 0.00 | 0.19 | 0.00 | 82 | 1006.0 |
| 20260830005938 | 65 | 243 | 6.0 | 16.0 | 0.00 | 0.19 | 0.00 | 81 | 1006.0 |
| 20260830005644 | 65 | 201 | 7.0 | 16.0 | 0.00 | 0.19 | 0.00 | 81 | 1006.0 |
| 20260830004939 | 65 | 245 | 8.0 | 18.0 | 0.00 | 0.19 | 0.00 | 81 | 1006.0 |
| 20260830004438 | 65 | 245 | 7.0 | 18.0 | 0.00 | 0.19 | 0.00 | 81 | 1006.0 |
| 20260830003938 | 65 | 249 | 7.0 | 17.0 | 0.00 | 0.19 | 0.00 | 81 | 1006.0 |
| 20260830003439 | 65 | 250 | 7.0 | 17.0 | 0.00 | 0.19 | 0.00 | 82 | 1005.9 |
| 20260830002938 | 65 | 249 | 8.0 | 20.0 | 0.00 | 0.19 | 0.00 | 82 | 1005.9 |
| 20260830002644 | 65 | 132 | 9.0 | 20.0 | 0.00 | 0.19 | 0.00 | 82 | 1006.0 |
| 20260830002439 | 65 | 246 | 8.0 | 20.0 | 0.00 | 0.19 | 0.00 | 82 | 1005.9 |
| 20260830001939 | 65 | 241 | 7.0 | 17.0 | 0.00 | 0.19 | 0.00 | 82 | 1005.9 |